Flag for Oman Weather past 2 weeks in Salalah, Oman

Now
82 °F

Passing clouds.


Feels Like: 92 °F
Forecast: 78 / 86 °F
Wind: 7 mph from Southwest

Location: Salalah Airport

Current Time: Aug 28, 2015 at 9:09:18 PM

Latest Report: Aug 28, 2015 at 8:50 PM


Visibility: N/A

Pressure: 29.68 "Hg

Humidity: 89%

Dew point: 79 °F

Location of SalalahLocation

Historic Weather in Salalah — Graph

°F

Salalah temperature yesterday

Maximum temperature yesterday: 86 °F (at 12:50 PM)
Minimum temperature yesterday: 79 °F (at 3:50 AM)
Average temperature yesterday: 82 °F

Past Weeks' High & Low Weather Summary

 TemperatureHumidityPressure
High86 °F (Aug 27, 12:50 PM)100% (Aug 16, 3:50 AM)29.83 "Hg (Aug 16, 3:50 AM)
Low77 °F (Aug 15, 5:50 AM)70% (Aug 19, 11:50 AM)29.59 "Hg (Aug 14, 3:50 PM)
Average81 °F85%29.72 "Hg
* Reported Aug 13 7:50 PM — Aug 28 7:50 PM, Salalah, Weather by CustomWeather, © 2015

Note: Actual official high and low records may vary slightly from our data, if they occured in-between our weather recording intervals... More about our weather records

Advertising

Salalah weather history for previous 24 hours

 ConditionsComfort  
Time TempWeatherWind HumidityBarometerVisibility
7:50 PM
Fri, Aug 28
82 °FPassing clouds.9 mph89%29.68 "HgN/A
6:50 PM82 °FPassing clouds.13 mph89%29.65 "HgN/A
5:50 PM82 °FPartly sunny.10 mph89%29.65 "HgN/A
4:50 PM84 °FBroken clouds.13 mph84%29.65 "HgN/A
3:50 PM84 °FBroken clouds.12 mph84%29.65 "HgN/A
3:00 PM84 °FPartly sunny.13 mph84%29.65 "HgN/A
1:50 PM86 °FPartly sunny.15 mph75%29.68 "HgN/A
1:00 PM86 °FPartly sunny.13 mph75%29.71 "HgN/A
11:50 AM86 °FPartly sunny.9 mph75%29.74 "HgN/A
10:50 AM84 °FPartly sunny.7 mph74%29.77 "HgN/A
10:00 AM84 °FPartly sunny.7 mph74%29.74 "Hg6 mi
9:00 AM82 °FPartly sunny.3 mph79%29.74 "Hg5 mi
7:50 AM82 °FPassing clouds.1 mph84%29.74 "Hg5 mi
5:50 AM79 °FPartly cloudy.2 mph94%29.71 "HgN/A
4:50 AM79 °FPassing clouds.6 mph89%29.68 "HgN/A
3:50 AM81 °FPassing clouds.6 mph84%29.68 "HgN/A
2:50 AM81 °FPassing clouds.6 mph84%29.68 "HgN/A
1:50 AM81 °FPassing clouds.5 mph89%29.68 "Hg6 mi
12:50 AM81 °FPassing clouds.3 mph89%29.71 "Hg6 mi
11:50 PM
Thu, Aug 27
81 °FPassing clouds.7 mph89%29.71 "Hg6 mi
10:50 PM81 °FPassing clouds.8 mph89%29.71 "Hg6 mi
9:50 PM81 °FPassing clouds.6 mph89%29.71 "Hg6 mi
Weather by CustomWeather, © 2015

See weather overviewHow to use our weather pages